Simultaneous Nadir Overpasses (SNOs) Predictions

Prediction of SNOs between METOP-B and NOAA-19 Satellite Orbit:

Table of predicted SNOs for the next 14.0 days since TLE Epoch: 4/24/2021
Index Date (METOP-B) Time (METOP-B) Lat,Lon (METOP-B) SZA (METOP-B ) Date (NOAA-19) Time (NOAA-19) Lat,Lon (NOAA-19) SZA (NOAA-19 ) Distance(km) Time Diff (sec)
1 04/27/2021 17:50:22 -80.48, 120.33 112.44 04/27/2021 17:49:07 -80.48, 120.41 112.46 1.51 75
2 04/27/2021 18:41:03 80.47, -72.37 67.55 04/27/2021 18:40:07 80.48, -72.46 67.53 1.93 56
3 04/27/2021 19:31:44 -80.47, 94.87 112.48 04/27/2021 19:31:07 -80.47, 95.04 112.47 3.05 37
4 04/27/2021 20:22:25 80.46, -97.83 67.51 04/27/2021 20:22:07 80.48, -97.83 67.52 1.27 18
5 04/27/2021 21:13:05 -80.48, 69.75 112.47 04/27/2021 21:13:07 -80.46, 69.67 112.49 2.52 2
6 04/27/2021 22:03:47 80.46,-123.28 67.47 04/27/2021 22:04:07 80.47,-123.19 67.50 2.23 20
7 04/27/2021 22:54:27 -80.47, 44.30 112.51 04/27/2021 22:55:07 -80.46, 44.30 112.51 1.79 40
8 04/27/2021 23:45:08 80.47,-148.41 67.48 04/27/2021 23:46:07 80.46,-148.56 67.48 2.94 59



Historial Predications of SNOs between METOP-B and NOAA-19
